CST,Max TemperatureF,Mean TemperatureF,Min TemperatureF,Max Dew PointF,MeanDew PointF,Min DewpointF,Max Humidity, Mean Humidity, Min Humidity, Max Sea Level PressureIn, Mean Sea Level PressureIn, Min Sea Level PressureIn, Max VisibilityMiles, Mean VisibilityMiles, Min VisibilityMiles, Max Wind SpeedMPH, Mean Wind SpeedMPH, Max Gust SpeedMPH,PrecipitationIn, CloudCover, Events, WindDirDegrees
2013-1-1,17,8,-2,12,5,-9,79,73,66,30.21,30.12,29.98,10,8,1,20,7,24,0.00,8,,226
2013-1-2,28,19,10,25,15,3,86,79,73,30.14,29.98,29.91,10,7,0,22,12,25,0.00,7,,268
2013-1-3,19,10,1,12,5,-6,79,73,67,30.30,30.21,30.12,10,10,7,23,14,29,0.00,2,,274
2013-1-4,24,18,12,12,9,5,79,68,59,30.12,30.08,30.05,10,10,10,23,14,29,0.00,0,,239
2013-1-5,24,18,12,16,9,3,79,71,62,30.09,29.96,29.87,10,10,5,22,12,25,0.00,2,,265
2013-1-6,26,16,5,16,7,-2,85,72,62,30.21,30.12,29.92,10,10,9,29,12,34,0.00,1,,236
2013-1-7,32,26,19,21,17,12,86,69,64,29.97,29.93,29.88,10,10,8,26,18,36,0.00,0,,224
2013-1-8,28,19,10,25,16,7,86,77,69,30.00,29.85,29.71,10,8,2,20,8,23,0.00,0,,209
2013-1-9,35,30,24,25,21,18,80,70,60,30.32,30.21,30.01,10,10,10,22,14,26,0.00,0,,225
2013-1-10,37,34,30,28,24,19,81,67,52,30.24,29.97,29.63,10,8,0,23,17,29,0.00,4,,170
2013-1-11,37,30,23,34,30,18,87,83,74,29.62,29.46,29.34,10,2,0,30,15,34,0.00,8,,196
2013-1-12,21,12,3,16,1,-6,80,66,57,30.05,29.89,29.51,10,9,4,32,23,40,0.00,3,,287
2013-1-13,10,6,1,0,-3,-8,78,68,57,30.22,30.11,30.03,10,10,10,16,11,20,0.00,1,,293
2013-1-14,19,11,3,9,4,-2,85,69,58,30.35,30.28,30.21,10,10,10,15,8,,0.00,1,,227
2013-1-15,28,19,10,12,9,3,79,62,47,30.23,30.08,29.82,10,10,10,23,14,30,0.00,0,,214
2013-1-16,39,30,21,28,21,10,80,72,63,30.09,29.83,29.72,10,10,7,25,17,30,0.00,6,,261
2013-1-17,,,,,,,,,,,,,,,,,,,,,,
2013-1-18,42,38,33,28,26,21,70,62,53,29.88,29.82,29.78,10,10,10,17,15,24,0.00,0,,240
2013-1-19,42,24,5,28,20,-6,70,62,53,30.28,29.93,29.75,10,10,10,32,16,43,0.00,2,,286
2013-1-20,10,5,0,0,-4,-9,78,66,56,30.37,30.30,30.27,10,8,1,21,12,24,0.00,2,,308
2013-1-21,3,-3,-9,-8,-12,-18,72,63,55,30.32,30.28,30.25,10,10,10,25,17,31,0.00,0,,295
2013-1-22,14,4,-5,5,-4,-15,73,63,52,30.31,30.24,30.13,10,10,10,13,7,,0.00,4,,250
2013-1-23,15,4,-7,7,-1,-18,79,65,53,30.52,30.26,30.09,10,10,9,28,14,31,0.00,1,,320
2013-1-24,15,4,-7,3,-7,-17,71,60,52,30.53,30.34,30.07,10,10,8,21,11,30,0.00,2,,132
2013-1-25,26,14,3,16,3,-6,74,63,45,30.24,30.10,29.98,10,10,10,29,14,33,0.00,2,,302
2013-1-26,28,14,1,16,5,-6,78,61,49,30.25,30.11,29.98,10,10,10,21,9,29,0.00,3,,136
2013-1-27,33,30,28,28,24,14,87,75,55,29.97,29.82,29.73,10,6,0,18,12,24,0.40,6,,156
2013-1-28,33,32,30,28,28,27,87,85,80,29.85,29.76,29.56,2,0,0,14,2,,0.00,8,,106
2013-1-29,32,26,21,28,23,12,87,81,68,29.76,29.66,29.55,10,6,0,31,11,38,0.00,8,,344
2013-1-30,19,10,1,12,4,-8,79,67,62,29.82,29.75,29.70,10,10,5,36,25,43,0.00,5,,321
2013-1-31,0,-4,-7,-9,-13,-18,77,64,55,30.27,30.06,29.82,10,10,5,28,19,34,0.00,1,,305